Wind_Speed
10 4 4 7 11 12 13 15 15 16 17 16 16 15 10 6 8 9 2 6 9 12 11 11 9 7 9 10 8 8 6 6 8 9 10 11 12 13 14 15 16 16 16 15 16 19 20 19 19 17 15 14 14 14 14 13 12 12 11 12 12 11 11 11 11 10 9 9 8 8 9 9 11 13 13 13 14 14 15 16 16 16 17 17 17 17 16
8 5 6 8 10 11 12 14 14 15 17 17 17 15 11 9 11 10 4 4 8 11 12 11 9 7 8 8 8 9 9 9 8 10 11 12 13 14 15 16 16 16 16 16 17 19 19 19 19 17 15 14 14 15 15 14 13 12 12 13 13 12 11 12 11 10 10 9 9 9 10 10 12 13 14 14 13 13 15 16 15 15 15 15 16 15 15
7 6 7 8 10 11 11 12 12 14 14 14 14 12 8 8 9 8 8 8 9 10 9 6 5 6 6 8 10 12 11 9 8 11 12 13 14 15 15 16 16 16 16 16 17 18 19 19 19 17 15 15 15 16 15 14 13 13 14 14 14 13 12 12 12 11 10 10 11 11 11 12 13 14 14 14 13 14 15 15 14 14 14 14 14 14 14
6 6 8 9 9 10 11 11 11 13 13 11 10 8 7 8 8 7 8 9 8 6 5 5 7 9 9 12 13 11 9 7 8 11 12 12 13 14 15 16 16 17 17 17 17 19 20 20 19 17 16 16 17 17 15 13 13 13 15 15 14 13 13 13 12 11 11 12 12 12 12 13 14 14 14 14 14 15 15 14 12 13 13 13 13 13 12
6 8 9 9 9 10 10 10 12 13 12 10 9 8 7 7 7 7 7 7 6 6 6 8 10 11 11 12 10 8 7 7 8 10 10 11 12 13 14 16 17 17 18 19 20 21 21 21 20 18 18 18 18 17 15 14 13 14 15 14 14 13 13 13 12 11 12 12 12 13 13 14 14 15 14 14 14 15 14 12 12 13 13 13 13 12 11
6 9 9 8 10 10 6 3 7 11 11 11 10 9 8 8 7 7 7 7 7 8 8 9 10 10 10 9 7 7 6 6 7 8 9 10 10 12 14 15 16 16 17 19 21 22 22 22 20 19 19 19 18 17 15 14 15 16 15 14 14 13 13 12 12 12 12 12 13 13 14 14 14 13 13 13 13 14 13 12 12 13 13 13 13 11 11
5 6 7 10 10 6 2 4 2 3 6 9 10 9 9 9 9 9 9 9 8 8 9 8 8 8 8 8 8 8 7 7 7 7 8 8 9 11 12 14 15 15 16 19 21 22 22 22 21 20 20 19 18 17 16 16 16 16 15 14 14 14 13 12 12 12 12 12 13 13 13 13 13 12 12 12 12 12 12 12 13 13 13 14 13 12 11
5 6 9 10 5 3 5 5 4 4 3 6 8 8 9 9 9 9 10 9 8 9 8 6 4 5 6 8 8 8 8 8 8 7 6 7 8 10 11 12 14 16 18 20 21 21 21 21 21 20 20 20 18 17 17 17 17 16 15 15 14 14 13 12 12 12 12 12 12 13 13 13 13 12 12 12 12 11 11 12 13 13 13 14 13 13 13
5 8 10 7 3 3 4 4 5 5 5 6 6 7 7 7 7 8 7 7 8 8 6 3 2 2 5 7 6 6 6 6 6 6 5 5 7 8 9 12 15 17 19 20 21 22 21 21 22 21 20 20 19 18 18 18 17 16 15 15 15 14 13 12 11 11 11 11 12 13 13 12 12 11 11 12 12 11 11 13 13 13 13 14 13 13 16
6 10 10 8 9 9 7 7 8 8 5 4 4 5 6 6 7 7 5 6 7 6 4 3 2 2 5 7 3 4 4 5 5 5 4 4 6 8 11 13 16 18 18 19 22 24 23 22 22 21 20 21 20 19 19 18 17 16 16 15 15 13 12 12 11 11 10 11 12 12 12 12 12 12 11 11 12 11 11 14 15 12 13 15 16 15 15
7 9 10 9 9 8 5 6 7 6 4 4 4 5 7 5 6 5 4 5 6 6 4 4 4 4 7 5 2 5 5 5 5 5 4 5 6 9 11 14 16 18 18 20 23 24 22 21 21 21 22 22 21 20 20 19 17 17 17 16 14 13 12 12 11 10 10 10 11 11 11 12 12 10 8 9 11 10 10 12 13 12 13 15 17 19 19
9 9 10 8 7 3 2 6 8 7 6 5 3 8 5 1 2 2 3 5 6 5 5 4 6 7 6 2 3 5 6 6 5 5 5 5 7 9 11 13 15 17 18 19 20 20 19 20 22 22 22 23 22 21 21 20 19 18 18 16 14 13 12 11 10 9 9 10 11 10 11 11 9 6 5 7 9 9 9 10 9 9 10 11 14 18 21
10 11 10 8 6 1 6 6 7 8 7 4 7 8 3 2 1 1 3 6 7 5 6 6 6 5 1 3 4 6 7 7 6 5 6 7 7 9 11 13 14 16 17 17 18 18 20 22 22 20 20 21 21 21 20 20 20 18 17 15 14 13 12 9 8 9 9 10 10 10 10 10 7 3 4 7 8 8 8 8 6 7 8 8 10 15 18
10 9 8 9 7 2 5 3 5 6 5 6 5 3 4 4 3 1 4 8 8 6 7 8 7 4 4 5 5 6 7 7 7 7 7 8 8 9 10 12 13 14 15 16 18 19 22 23 19 16 17 18 18 18 18 20 20 18 16 15 14 11 9 6 6 7 8 9 10 9 10 10 7 4 4 8 10 9 8 6 5 6 7 7 9 12 15
8 8 8 9 6 2 3 2 4 3 4 4 3 3 3 4 4 4 6 8 8 8 9 9 8 5 5 6 6 7 7 7 8 8 8 8 8 9 10 12 13 13 12 13 17 20 20 18 14 13 15 15 15 15 18 20 19 17 15 13 10 8 7 5 5 7 8 8 9 8 8 8 7 5 6 9 10 10 8 6 6 6 7 8 9 11 13
6 8 6 3 1 4 2 2 1 1 3 4 4 5 6 6 6 6 6 7 8 9 8 7 7 6 5 6 7 8 8 9 9 8 8 8 8 9 10 11 13 12 11 11 13 15 14 11 10 12 14 13 13 15 17 18 16 13 12 11 9 7 6 5 5 6 7 7 7 7 7 7 7 7 8 9 10 8 8 8 8 7 7 7 9 11 12
3 3 1 3 3 3 2 3 3 5 7 7 7 8 8 8 8 6 6 8 8 6 6 7 7 7 6 7 8 8 9 9 9 8 8 8 8 8 8 9 10 10 9 8 7 7 7 7 7 10 12 12 13 16 18 16 13 12 12 11 9 7 6 5 5 5 6 5 4 5 5 6 7 7 8 9 10 9 9 10 9 9 8 7 9 12 12
1 0 3 3 1 2 2 2 3 6 7 7 7 8 8 9 9 8 8 9 8 6 7 7 8 8 7 7 8 8 8 8 8 8 8 8 8 8 8 7 7 6 5 5 5 5 5 5 6 8 10 11 13 16 16 14 13 13 12 11 9 8 6 5 4 3 4 3 3 3 4 6 7 7 8 9 9 9 9 11 10 10 9 8 9 11 11
2 3 2 3 3 3 4 4 4 6 8 8 8 8 8 8 10 10 9 9 8 6 7 9 9 9 9 8 8 7 7 7 8 8 8 8 8 8 7 7 5 3 3 3 5 5 5 5 6 7 8 10 12 12 12 11 12 12 11 10 8 7 5 4 4 3 1 1 3 4 5 6 7 8 8 9 10 10 11 12 11 10 10 9 9 10 9
2 1 3 5 5 1 5 5 6 7 10 12 11 10 9 9 10 10 8 7 7 6 8 9 9 9 9 9 8 7 7 7 7 7 7 7 7 7 7 6 4 3 3 3 3 2 2 1 2 4 5 7 8 8 8 9 9 10 9 8 7 5 4 4 4 3 2 2 3 5 6 6 8 10 8 8 10 12 12 11 9 9 10 9 8 9 9
4 3 2 7 6 6 5 6 9 9 11 13 13 12 11 10 10 9 8 7 6 6 7 8 8 8 8 8 8 9 8 7 7 7 7 8 8 7 7 7 5 4 3 2 3 3 3 2 1 1 2 3 4 4 5 5 7 8 8 7 4 3 3 5 5 5 5 5 6 6 7 8 9 9 8 9 11 12 11 10 10 10 10 9 7 7 8
5 1 3 6 4 5 2 7 11 12 13 13 13 12 11 11 10 8 7 6 5 5 6 7 7 7 7 5 6 8 8 8 8 9 9 8 9 8 8 7 7 7 6 5 5 4 4 3 2 1 1 1 3 3 3 4 6 7 8 7 3 3 5 6 7 7 6 7 7 6 8 9 8 6 7 10 13 11 8 9 10 9 7 6 4 4 4
3 4 6 5 3 6 7 9 11 12 11 11 12 12 11 11 10 8 7 7 7 7 5 6 7 7 7 5 5 7 8 8 8 9 8 8 8 8 7 7 7 7 6 6 5 4 4 3 2 2 2 2 2 3 3 4 5 6 7 7 4 6 7 6 6 6 8 9 8 7 7 7 7 6 4 5 7 6 5 6 5 3 1 1 2 3 4
4 5 6 5 5 7 10 12 13 10 7 9 12 12 11 11 10 9 9 8 9 9 7 6 7 8 8 6 5 6 8 8 8 8 8 7 8 7 7 7 7 7 6 5 5 4 3 3 2 2 2 2 3 3 3 3 4 5 7 7 6 7 7 6 4 5 8 8 6 7 6 6 7 7 3 1 1 2 2 2 1 3 4 5 7 7 7
6 7 8 7 7 8 9 11 10 7 6 10 12 12 11 11 10 9 10 8 8 10 9 8 8 9 8 7 6 7 7 8 9 9 8 8 7 6 6 7 7 7 6 5 5 4 3 3 2 2 2 2 2 3 3 3 3 4 5 5 4 5 5 5 5 6 7 6 5 6 6 5 5 4 4 6 8 8 7 6 7 7 5 6 7 8 8
7 8 9 10 10 8 7 7 7 8 10 12 12 12 13 11 9 8 9 8 8 10 11 10 9 9 9 8 8 8 7 8 9 8 7 6 6 6 6 7 7 7 7 6 5 4 3 3 2 1 2 2 1 1 2 3 3 4 4 4 4 4 5 6 6 6 6 5 5 5 4 4 4 2 3 9 13 15 13 9 8 8 6 5 7 7 8
7 7 9 11 10 8 7 7 9 11 13 13 12 13 13 11 8 7 7 10 11 11 12 13 12 10 8 8 8 8 8 9 8 6 6 7 7 7 7 8 8 8 7 6 6 5 4 3 2 1 1 1 2 2 2 3 3 3 3 4 5 6 6 6 6 6 5 4 4 4 3 2 3 2 1 4 8 12 12 9 7 7 6 5 5 6 7
6 6 6 8 9 9 10 10 11 12 12 12 12 12 13 12 9 7 8 12 13 12 12 13 13 11 9 8 8 8 9 9 9 8 8 8 7 8 8 9 8 8 7 7 6 5 4 3 2 2 1 2 2 1 2 2 3 4 5 6 7 6 6 7 6 5 3 2 2 2 1 1 1 1 3 4 5 6 6 4 4 3 2 3 3 4 7
5 6 6 7 9 10 11 11 11 11 12 13 12 11 12 12 10 9 10 11 11 10 11 12 12 12 11 11 10 10 9 9 9 9 9 8 8 9 9 8 8 7 6 6 5 4 4 3 2 2 2 1 1 2 3 3 4 4 5 5 6 6 6 6 5 4 3 2 2 3 3 3 3 5 7 7 7 6 5 3 2 2 2 2 2 2 6
7 8 9 10 10 12 12 11 11 12 12 12 12 11 11 12 11 10 10 10 10 10 11 11 11 12 13 13 12 11 10 9 10 10 10 9 8 8 8 7 6 5 5 4 4 3 3 2 1 2 1 0 1 2 3 3 3 3 3 3 4 4 4 5 5 4 4 3 4 5 5 6 6 7 9 10 9 8 5 4 3 3 3 4 3 4 6
10 10 12 12 12 12 12 11 10 11 11 11 12 12 12 11 11 11 10 9 9 10 11 11 11 12 13 12 11 9 9 11 11 10 10 10 8 8 7 5 3 3 4 4 4 3 2 2 2 2 1 1 2 2 3 3 3 3 2 1 0 1 4 6 5 4 5 6 7 7 8 8 8 8 9 11 10 8 5 5 5 5 5 5 5 6 7
11 12 13 12 11 12 12 10 10 11 12 12 12 12 11 10 10 11 11 9 10 11 10 10 10 10 10 10 10 10 11 12 11 10 10 10 9 7 6 4 3 3 4 5 4 3 3 3 3 3 2 1 2 2 2 2 2 3 2 1 1 2 4 5 5 5 7 8 10 10 11 10 8 7 7 8 9 7 5 4 5 5 5 5 6 7 8
11 11 11 10 11 12 14 13 13 13 13 13 12 11 10 10 10 10 10 9 9 9 8 8 9 10 11 10 9 10 11 11 10 10 10 9 9 7 6 5 5 6 6 6 5 4 4 4 3 3 3 2 2 2 1 0 1 2 2 2 2 4 5 6 7 8 9 10 11 12 12 10 8 7 6 6 6 5 3 3 4 4 4 5 6 7 7
9 9 10 12 12 13 14 14 13 14 14 13 13 12 11 10 10 9 7 7 8 8 9 11 12 14 13 10 8 10 10 8 7 7 8 9 8 7 6 6 7 7 6 6 5 5 5 4 4 3 4 3 3 3 2 2 2 3 4 4 5 6 7 8 8 9 10 11 12 11 10 8 7 6 5 4 3 2 2 1 2 2 3 4 5 6 7
10 10 12 12 12 13 14 14 13 14 15 14 13 12 11 10 9 8 6 6 5 5 9 10 10 12 13 11 9 9 9 8 8 9 9 8 8 7 7 7 7 7 7 6 4 4 5 4 3 3 3 3 3 3 3 3 4 5 5 5 7 7 8 8 8 8 9 11 11 9 7 6 5 4 3 1 1 0 0 0 1 1 2 3 4 4 6
11 10 10 10 12 14 15 14 14 14 14 13 12 12 11 10 9 7 5 5 7 11 13 10 7 5 7 8 8 9 10 10 11 10 9 8 7 7 7 7 6 6 6 5 4 3 3 4 4 3 2 1 2 2 3 4 5 6 6 7 7 8 8 8 7 8 8 8 8 6 6 5 4 3 2 2 2 1 1 1 1 2 2 2 2 2 3
12 11 10 10 12 14 15 15 15 14 13 11 11 9 8 7 6 4 6 9 12 14 15 14 10 7 6 7 9 10 11 10 10 10 9 8 8 8 7 6 5 4 4 4 3 2 3 5 5 4 2 1 2 3 5 6 7 6 6 6 6 7 7 7 6 7 7 6 6 6 5 5 4 4 3 3 3 2 2 2 3 4 3 3 3 3 4
13 13 12 12 13 14 16 16 16 15 14 12 9 6 4 3 3 6 8 10 12 14 14 15 14 12 10 8 8 9 10 10 9 9 9 8 8 7 6 5 3 2 2 2 3 3 4 4 4 4 4 4 4 5 6 7 6 4 4 5 5 5 6 7 7 7 6 6 6 6 5 5 5 4 4 4 3 4 4 4 5 5 4 4 4 4 4
12 12 12 13 14 14 15 15 14 13 12 10 6 5 6 8 10 11 10 11 13 13 14 15 15 13 11 9 7 7 8 8 8 9 9 8 7 8 7 5 4 4 4 4 4 5 5 4 4 5 5 5 5 6 6 6 5 4 4 5 4 5 5 6 6 7 6 6 6 6 5 5 4 4 4 4 5 5 5 6 6 6 5 4 4 4 3
9 10 11 12 12 12 11 10 9 7 6 5 5 8 11 13 15 16 15 14 13 13 14 15 14 12 9 7 7 7 7 6 7 8 9 8 8 8 8 7 7 6 6 5 6 6 5 4 4 5 4 4 4 4 5 5 4 4 4 4 4 4 5 5 6 6 6 6 6 6 5 5 5 4 5 6 6 6 6 7 6 6 6 5 4 4 3
9 9 9 10 10 10 9 7 5 4 3 5 8 10 12 13 14 14 15 14 14 14 13 11 9 9 9 9 9 9 8 7 7 7 8 8 8 7 6 7 7 7 7 7 7 6 4 3 2 3 3 3 3 4 4 3 3 3 3 3 3 4 4 4 4 4 4 5 5 5 4 4 5 5 6 6 6 6 7 7 7 6 6 5 5 4 3
10 9 8 8 8 8 7 5 4 3 4 7 10 13 13 13 13 13 11 10 9 10 10 9 8 8 9 10 11 11 10 9 9 8 7 6 5 5 6 8 8 8 8 8 7 6 4 3 2 2 2 2 3 4 3 1 1 2 2 3 3 3 4 3 3 3 3 4 4 4 4 4 5 5 6 6 6 6 7 7 7 7 6 5 5 4 3
9 7 6 6 6 5 4 3 3 6 7 8 10 12 13 13 13 12 10 9 8 9 10 11 11 9 9 11 12 12 11 11 11 9 8 6 5 5 8 9 9 8 8 7 6 4 3 2 3 4 4 4 4 3 1 1 1 2 2 3 3 3 4 3 3 3 3 3 3 3 4 4 5 6 6 6 6 7 7 6 6 6 6 5 5 4 3
8 6 5 5 4 2 1 1 3 5 7 8 10 11 11 11 10 9 8 8 9 9 9 10 10 10 10 11 11 11 11 11 11 10 10 9 8 8 9 9 9 9 8 6 5 4 4 4 6 7 6 6 5 3 0 2 1 2 2 3 4 4 4 4 4 4 4 4 4 4 4 4 4 5 6 6 6 6 7 6 5 5 5 5 5 4 3
8 6 3 2 2 2 3 2 2 4 5 6 8 9 9 8 7 7 7 8 8 8 8 9 10 11 11 11 11 11 11 11 11 10 10 8 8 8 9 10 9 9 8 6 5 5 6 7 8 7 6 7 6 3 0 1 1 1 3 4 4 4 4 4 5 4 4 5 5 4 4 5 5 4 5 5 5 6 6 6 6 5 5 5 5 4 4
8 6 3 2 2 2 3 3 1 3 4 5 5 6 6 6 6 7 8 8 8 8 8 9 10 10 10 11 11 11 11 11 10 10 9 8 8 10 11 10 9 9 9 7 6 7 8 8 7 6 6 6 4 1 1 1 1 2 3 4 4 5 5 5 5 5 5 6 6 5 5 5 5 4 4 4 4 4 5 5 5 5 5 5 4 4 4
5 4 4 4 3 1 1 3 3 3 4 4 4 5 5 5 6 7 8 8 8 7 7 8 8 8 9 11 11 10 10 11 10 10 9 9 10 12 12 10 10 11 9 7 6 8 9 9 7 6 5 5 3 1 1 1 1 2 2 3 4 5 5 5 5 5 6 6 6 6 5 4 5 5 4 4 4 5 5 5 5 6 6 6 5 5 5
4 5 6 6 4 3 3 5 6 5 4 4 4 5 6 6 6 7 7 7 7 6 6 7 7 7 9 10 10 9 9 10 9 9 10 11 12 12 12 10 11 12 10 6 6 8 10 10 8 6 5 4 2 1 2 1 1 1 2 3 4 5 5 5 5 6 7 7 6 6 6 5 5 5 5 5 5 5 5 6 6 6 6 7 7 7 7
4 4 4 5 4 4 4 4 5 4 5 5 6 6 7 7 7 7 7 6 6 6 6 6 6 7 8 10 10 9 9 8 8 9 11 12 11 11 11 11 13 13 10 5 5 8 10 8 7 5 4 2 1 1 1 1 1 1 1 2 3 4 5 5 5 6 6 6 6 6 5 5 5 5 4 5 5 5 5 6 6 5 6 7 6 6 7
4 3 2 3 3 4 4 4 3 3 5 7 7 7 7 7 6 6 6 6 6 5 5 6 7 7 8 9 10 10 9 8 8 9 12 12 11 10 10 11 13 13 9 4 3 8 11 9 6 5 4 3 2 1 1 1 2 2 2 2 4 5 4 3 4 4 5 5 5 5 5 5 5 4 4 5 5 5 5 6 5 5 7 8 7 7 7
4 3 4 4 4 4 3 2 2 4 6 7 6 6 5 5 4 5 5 6 5 5 5 5 6 7 8 9 10 10 11 10 10 11 12 12 11 10 10 10 11 12 10 6 4 7 10 10 8 6 5 4 3 3 2 2 3 3 4 4 5 5 5 5 6 6 6 5 5 5 5 5 5 5 5 5 5 5 6 6 6 6 8 9 8 7 7
5 5 5 4 4 4 5 6 6 5 5 4 4 3 3 2 3 4 5 5 5 5 5 5 6 7 8 9 10 11 12 12 11 11 12 12 11 10 10 9 9 10 10 8 6 6 8 8 8 6 5 5 6 6 4 3 4 5 5 6 6 6 6 7 7 7 7 6 6 7 6 6 6 6 6 6 6 6 7 8 7 7 8 9 8 8 8
Wind_Direction
224 226 200 202 224 233 230 225 215 205 202 205 214 225 222 209 245 268 173 165 243 271 287 297 300 292 285 284 286 290 280 246 219 205 201 200 196 190 186 185 184 181 175 169 165 166 169 172 173 174 178 180 185 197 208 212 216 221 222 224 230 237 242 245 249 255 255 252 256 262 267 275 282 285 294 303 302 300 302 301 300 299 298 296 291 286 286
206 194 201 211 222 227 231 228 214 202 201 204 213 224 224 227 251 267 253 220 256 278 289 293 296 294 287 287 289 282 272 257 232 212 208 205 198 194 192 189 188 184 176 170 165 164 168 171 171 173 175 178 189 204 211 212 216 220 221 223 227 234 239 243 250 255 252 250 256 263 270 278 283 289 301 304 298 300 305 302 299 300 299 296 293 290 291
195 184 190 202 216 218 217 216 205 198 200 202 213 226 220 219 242 259 265 267 269 277 282 280 283 286 277 270 270 269 270 267 246 229 220 212 204 200 195 190 187 184 178 172 165 163 168 170 170 174 177 183 199 211 215 217 218 219 220 222 225 231 238 243 249 254 253 252 258 266 273 279 282 292 302 301 299 304 306 302 300 300 299 297 296 296 296
197 177 188 192 201 209 205 200 193 191 196 202 213 219 208 217 237 245 255 263 269 284 297 290 289 288 274 263 261 262 271 275 259 245 234 222 212 204 196 191 188 184 179 175 169 166 169 170 172 176 180 190 204 212 215 219 222 222 220 221 226 231 236 243 249 253 255 256 261 270 277 280 283 293 301 299 302 307 304 302 302 301 300 300 299 300 300
190 169 191 188 188 210 213 200 195 197 203 211 215 214 210 221 240 248 254 266 291 320 315 294 288 288 283 276 269 265 273 277 265 252 242 233 220 207 198 192 187 185 182 177 171 167 168 171 175 180 187 197 206 210 212 216 221 223 221 222 227 232 237 245 250 255 259 260 266 272 278 282 284 292 300 302 307 310 306 302 302 301 301 301 300 300 299
192 163 178 194 209 225 227 197 204 208 213 219 222 225 219 211 221 244 265 280 293 299 289 278 280 289 295 293 280 266 263 259 256 251 243 237 224 209 202 195 189 189 183 173 167 165 167 173 179 186 195 202 206 209 211 215 219 221 221 223 228 232 239 246 250 256 261 264 270 274 278 282 283 288 298 303 307 311 309 305 303 301 301 303 301 299 298
214 158 180 219 233 229 145 92 120 188 213 223 231 237 227 218 223 237 256 269 274 277 276 275 282 291 299 294 277 260 246 235 242 247 240 233 222 211 204 197 192 189 176 165 161 162 168 175 182 190 198 203 207 209 211 215 217 218 220 224 227 232 239 247 251 257 264 269 274 276 278 279 279 283 293 299 304 310 310 309 307 304 302 302 298 294 293
205 188 212 230 234 126 120 118 103 99 151 200 220 234 228 225 231 237 251 267 271 272 274 277 282 288 293 286 266 244 234 230 233 241 236 223 216 210 203 197 191 180 169 161 156 154 162 174 184 193 200 205 209 210 211 215 217 217 220 224 227 231 239 247 254 260 266 273 277 278 278 276 275 281 290 296 301 304 304 307 310 307 305 304 303 302 302
216 225 228 230 215 159 154 159 164 176 189 191 214 249 245 230 238 250 261 267 265 270 274 266 258 277 281 272 242 207 214 221 223 235 232 209 205 202 195 191 182 171 165 159 152 151 161 177 189 197 202 206 208 211 213 215 217 218 220 222 225 231 239 249 258 263 267 275 280 280 279 276 275 280 287 293 298 302 306 309 307 308 313 317 320 318 313
224 240 238 235 240 237 227 213 195 194 206 189 197 262 263 237 240 258 265 255 252 257 253 223 195 220 256 255 206 151 175 188 194 212 212 191 187 183 182 181 172 165 162 157 155 162 173 184 193 201 205 205 206 210 214 217 219 220 220 222 225 232 242 251 258 263 266 272 278 279 277 274 275 281 287 295 302 308 314 313 309 317 328 328 324 320 314
221 239 242 236 245 253 238 194 167 166 172 134 140 252 260 234 226 237 239 241 247 248 235 201 182 217 253 258 139 133 162 167 167 180 176 163 163 166 172 173 165 162 160 157 162 172 181 189 197 202 204 205 206 210 214 219 222 221 220 222 224 232 245 253 259 264 266 270 275 276 274 273 276 283 289 297 302 304 309 311 316 330 335 326 321 320 316
224 233 244 246 251 264 108 122 129 136 140 129 203 254 257 158 155 214 234 247 252 244 227 198 200 233 267 327 99 139 154 145 145 156 155 151 152 158 165 165 160 159 157 158 168 179 187 197 204 204 202 204 207 211 214 219 223 222 220 220 223 233 246 253 257 262 264 268 271 272 276 279 279 279 282 285 287 287 287 291 303 319 320 317 319 318 315
225 227 241 248 244 115 89 113 130 130 139 187 246 261 297 4 314 226 253 267 269 244 214 207 224 240 256 85 127 147 141 132 136 143 142 143 148 155 159 157 157 161 164 170 178 187 197 207 209 204 200 201 206 211 215 220 222 220 219 223 229 237 243 245 253 259 262 266 268 271 279 280 268 243 257 269 267 267 271 271 277 295 301 306 312 312 312
233 230 238 246 240 109 79 114 134 135 196 245 264 316 345 325 302 294 268 274 277 253 220 223 241 230 144 142 157 146 134 134 138 141 140 143 151 155 154 155 160 167 174 182 190 198 207 212 209 200 196 199 203 209 216 222 221 220 223 229 230 228 224 227 248 261 265 268 270 266 262 255 242 224 237 254 260 262 261 257 263 281 292 301 305 306 309
239 232 234 245 244 92 80 143 142 162 247 285 4 355 323 331 342 327 286 276 277 262 235 227 232 213 161 156 153 140 138 142 142 142 141 142 150 155 158 164 171 177 181 187 198 209 214 211 201 192 195 199 201 207 218 224 223 220 219 214 202 194 200 216 245 263 269 270 269 262 249 241 239 239 241 250 259 262 257 260 273 278 286 302 308 305 305
240 243 238 230 111 67 37 295 269 277 302 346 351 313 312 328 327 314 295 284 279 269 252 229 212 196 171 161 150 141 144 149 147 144 142 143 151 164 176 179 180 186 192 194 204 213 211 197 187 192 201 204 203 211 222 225 219 206 194 183 176 182 206 225 243 262 269 266 262 259 251 238 233 238 247 255 259 256 256 269 277 277 282 296 302 300 300
243 276 18 83 90 55 359 327 340 334 328 335 323 305 303 299 290 286 287 286 278 262 250 230 202 187 178 170 159 147 144 148 148 145 145 147 149 159 170 170 172 188 200 200 202 200 185 176 185 199 207 209 209 217 225 222 207 187 173 171 179 194 213 229 242 255 260 260 263 267 259 241 234 241 255 260 256 255 266 276 278 277 282 288 289 293 300
196 10 56 64 39 18 33 37 16 349 335 337 331 311 295 287 283 276 273 278 274 248 229 218 199 186 175 163 152 144 139 141 142 141 142 143 142 143 140 135 145 173 191 195 198 194 188 200 213 215 218 222 226 230 226 211 193 180 172 171 182 196 213 228 228 229 243 263 289 289 266 248 244 249 257 259 256 254 265 276 278 276 277 277 278 288 301
229 227 112 41 353 20 58 56 38 12 350 344 337 313 293 288 289 283 275 271 265 241 218 208 193 180 169 154 140 139 141 139 138 140 139 135 131 129 124 119 125 147 176 208 222 229 232 228 229 233 235 237 241 241 229 206 184 171 168 173 184 196 206 202 184 173 180 296 305 288 270 261 266 266 258 256 261 263 266 273 276 276 278 281 284 292 305
252 196 81 11 324 200 112 59 30 16 354 341 333 317 298 286 283 282 277 263 242 216 204 199 187 174 165 154 145 145 143 135 133 134 129 124 118 112 113 121 133 149 179 214 236 256 256 219 231 255 255 250 247 240 229 214 186 166 167 173 179 188 187 174 169 167 173 227 263 270 268 270 280 278 262 250 263 274 276 275 275 279 284 289 295 299 305
234 188 66 354 301 203 147 39 12 3 347 335 329 320 307 291 279 273 263 247 228 207 193 186 179 166 152 151 159 159 147 136 133 127 119 118 120 118 120 128 131 124 115 97 75 69 73 74 60 279 259 260 245 219 209 198 172 162 158 150 147 175 181 179 192 208 230 246 252 265 276 276 275 273 263 258 267 276 276 268 267 275 283 288 300 309 313
237 203 39 9 313 240 268 356 352 345 340 335 330 324 314 303 292 274 248 222 200 185 177 171 166 145 125 142 183 175 149 134 127 123 123 123 121 119 119 117 109 96 85 81 83 90 93 86 83 115 135 219 235 216 194 164 153 152 143 133 149 227 218 217 226 233 255 270 265 267 281 284 277 263 256 261 267 268 262 260 264 268 270 273 290 313 330
292 25 34 27 336 300 311 329 331 330 334 337 336 331 320 308 298 278 245 203 166 156 163 164 158 144 132 153 195 173 139 123 113 111 118 122 119 118 117 110 102 97 93 93 98 100 101 102 108 123 138 164 191 192 173 153 154 156 147 147 191 232 233 238 246 254 274 283 276 266 274 280 276 267 257 265 273 264 247 255 274 283 275 38 41 54 67
320 346 354 350 323 302 303 311 315 318 328 335 336 336 326 313 304 287 257 216 169 154 155 156 160 163 156 151 156 144 128 121 115 111 112 115 116 119 121 115 113 114 113 112 114 115 118 126 135 159 190 198 201 200 184 168 173 174 166 173 205 232 238 237 231 244 263 272 270 270 273 271 270 270 260 209 171 169 192 197 134 92 91 84 71 61 64
315 319 325 320 304 292 293 298 301 309 332 336 332 329 323 314 305 293 273 237 182 160 159 157 159 168 168 154 144 141 130 123 123 122 118 115 116 123 132 131 130 131 131 132 135 137 141 150 159 196 222 225 230 228 212 190 183 177 173 188 221 240 238 225 216 232 250 254 256 270 280 279 276 278 251 217 188 150 129 124 114 101 89 88 85 73 60
312 312 310 303 294 289 293 297 301 316 330 331 324 317 314 308 296 285 274 244 198 172 166 165 162 168 178 175 161 150 137 124 123 126 131 136 140 149 154 147 142 143 143 140 137 132 131 139 143 187 236 237 212 189 182 165 158 161 168 189 223 237 231 225 226 238 248 254 261 272 285 284 277 273 231 215 193 167 154 151 139 124 113 98 86 75 61
302 300 300 297 292 294 307 314 315 316 318 319 313 309 309 305 289 272 254 230 207 185 175 174 170 167 172 170 157 146 139 133 133 144 162 167 163 159 153 145 143 145 141 132 127 124 122 134 152 180 218 191 135 145 161 154 158 182 204 222 237 236 224 222 233 242 247 256 269 275 278 269 263 255 202 198 184 169 167 175 176 162 149 123 82 55 47
284 283 289 291 294 303 310 309 306 305 304 305 306 305 305 301 286 260 234 218 203 187 181 181 174 165 164 164 156 151 151 153 159 166 165 160 149 138 135 137 141 141 136 131 132 135 138 155 191 202 164 120 128 177 210 208 218 232 238 243 246 237 216 211 220 230 236 245 255 257 245 204 184 136 125 126 125 132 145 162 179 177 150 115 96 56 40
288 298 301 299 298 299 298 296 296 294 293 294 298 300 299 294 282 259 237 220 203 185 179 179 172 168 171 172 170 173 175 172 167 157 142 134 131 129 132 136 134 131 133 134 139 150 163 179 200 186 143 117 254 252 248 244 243 247 250 252 255 247 221 208 204 200 205 217 214 199 183 166 147 126 117 110 102 100 105 111 132 125 65 57 92 58 26
308 308 303 298 295 292 291 292 292 293 293 293 295 295 293 289 281 266 247 229 214 199 185 173 170 178 182 180 182 186 178 158 144 134 125 121 122 121 124 131 135 137 144 147 149 161 174 180 167 141 133 266 279 259 252 247 240 238 244 254 265 255 212 186 179 183 186 182 178 173 161 150 143 131 118 107 97 92 89 76 65 69 58 43 33 19 8
305 303 300 298 297 295 294 293 291 292 293 292 290 289 286 283 279 271 254 230 213 207 193 174 172 184 185 177 170 162 143 128 123 119 115 112 109 111 119 132 151 160 149 146 154 162 156 142 120 100 71 341 309 280 268 260 236 214 200 180 215 226 188 172 169 177 174 164 161 158 146 138 137 132 118 109 101 93 84 72 60 52 51 49 38 24 12
299 298 296 296 298 300 302 303 300 297 296 294 292 289 286 283 280 276 265 240 215 207 199 183 173 170 162 151 140 127 117 114 111 107 104 101 97 100 112 121 126 130 128 131 139 143 134 123 106 85 60 20 354 327 292 265 225 200 180 145 132 162 168 168 169 169 163 157 154 150 143 138 136 128 110 102 99 92 81 77 69 54 50 51 41 28 25
295 296 297 301 306 308 309 308 305 300 297 294 292 288 283 279 277 277 276 260 228 207 191 171 155 141 131 128 128 121 114 111 106 101 100 100 99 102 111 120 122 123 124 124 123 116 108 104 95 78 63 53 42 32 19 73 170 153 131 122 134 141 147 160 167 161 152 145 141 140 139 135 129 122 110 101 98 91 73 70 73 66 64 64 53 42 45
290 293 297 301 303 301 301 301 300 297 292 288 285 284 280 274 269 270 278 272 244 205 171 155 147 137 128 128 133 130 122 116 112 108 107 107 110 113 117 121 122 120 119 120 120 115 108 104 96 77 60 57 60 65 67 75 99 105 107 124 139 141 145 154 156 146 136 131 131 134 135 132 127 123 117 107 96 79 51 49 69 80 88 86 75 63 64
292 294 296 297 296 294 296 298 297 294 291 286 281 280 278 274 267 261 258 254 233 171 139 134 136 134 133 137 140 131 120 115 115 115 115 116 119 123 126 129 128 123 117 107 101 103 103 97 92 88 72 54 47 52 60 77 94 100 110 128 138 139 141 143 141 133 129 132 137 140 138 136 136 134 136 154 168 100 29 331 102 117 121 115 102 86 73
290 291 294 297 298 298 299 298 294 291 290 286 280 278 279 278 275 264 237 192 146 121 109 99 91 106 125 129 122 114 111 112 114 116 120 125 130 135 138 137 134 131 123 106 87 80 81 73 76 93 102 71 51 59 75 91 98 104 115 128 135 136 135 134 135 136 136 139 145 144 137 138 144 154 182 216 233 241 240 223 156 136 137 133 124 109 85
286 288 293 301 304 302 301 298 292 287 282 276 272 273 276 279 273 235 178 148 131 123 119 114 105 92 81 82 91 98 104 108 111 116 126 136 141 142 139 133 137 148 145 119 91 64 52 58 67 77 98 115 98 95 105 113 114 118 128 135 140 141 139 139 144 149 151 154 158 156 159 169 176 180 193 211 215 207 191 168 150 145 140 129 120 114 106
284 286 290 299 303 303 301 297 290 281 272 265 259 253 246 232 186 160 150 133 120 116 116 113 108 104 98 92 93 100 106 108 113 122 133 143 145 140 130 126 137 148 129 103 91 81 74 76 80 86 102 113 106 104 115 122 122 124 134 137 140 142 143 145 149 149 149 154 158 163 179 197 201 198 197 193 186 180 168 157 156 153 142 134 133 127 118
285 285 289 297 303 304 303 297 287 275 263 251 226 174 148 143 137 130 118 105 100 101 101 100 100 100 101 102 104 107 110 115 124 135 141 141 135 126 116 108 108 110 113 119 113 102 102 111 108 98 105 115 112 110 115 113 104 107 126 131 134 138 139 140 143 145 145 147 152 160 172 181 187 193 188 172 166 164 159 156 158 158 151 148 150 146 140
290 288 290 296 301 302 300 295 287 276 258 226 174 143 135 135 133 125 114 106 103 101 101 103 105 106 111 121 126 122 120 127 136 140 139 135 133 131 124 116 115 121 126 125 114 105 113 134 131 113 114 124 122 118 119 112 104 114 130 136 139 143 142 141 146 150 150 151 156 164 169 167 166 169 165 160 160 159 158 159 162 161 158 158 161 163 167
289 289 290 295 302 303 296 285 276 263 222 164 145 137 133 128 123 117 114 114 114 110 107 108 115 126 137 141 134 125 127 135 137 136 140 146 154 154 142 128 126 124 115 110 111 114 119 127 126 122 129 136 127 126 130 129 126 135 144 151 156 156 156 159 163 166 167 169 174 184 190 183 174 167 163 163 167 166 163 165 168 168 167 170 175 181 185
289 288 286 290 299 301 289 267 237 196 162 145 139 137 132 122 113 109 112 115 115 113 112 114 120 132 138 133 125 126 136 141 139 138 143 154 169 169 149 134 130 124 114 113 121 127 125 116 110 118 123 123 125 130 138 161 188 180 174 177 178 169 167 177 193 202 196 185 180 184 192 192 181 167 159 160 167 170 170 171 173 176 179 181 181 181 179
286 285 288 292 297 301 294 256 181 156 145 137 133 130 127 121 118 120 127 133 131 126 125 126 128 135 140 137 134 139 145 145 145 147 145 135 135 144 142 136 134 134 134 137 141 147 149 134 112 105 104 106 112 120 136 229 232 206 190 184 181 173 167 173 191 207 204 193 182 180 182 179 170 162 159 160 163 167 171 174 175 178 180 182 182 181 175
272 268 276 290 299 323 15 156 166 152 139 133 132 131 129 128 128 131 137 141 138 134 134 136 140 149 155 152 148 150 153 154 157 160 154 142 133 131 135 140 143 144 145 148 147 145 140 123 110 107 106 100 95 92 343 277 251 217 204 201 197 190 182 179 187 199 203 199 195 193 187 180 173 168 164 161 162 167 173 179 181 181 183 186 185 184 184
256 249 250 283 311 19 79 106 133 126 120 129 139 138 131 125 125 129 136 140 139 139 143 149 153 160 164 160 155 157 163 165 166 166 164 160 152 146 147 148 147 145 148 149 140 129 126 123 120 114 102 90 87 87 22 312 285 230 223 221 214 204 194 189 191 197 199 196 196 195 188 185 187 181 167 163 168 173 177 182 184 185 189 193 192 189 193
237 225 216 246 293 348 29 33 57 121 136 151 159 149 133 121 121 130 140 145 146 149 155 160 163 167 167 161 157 160 163 163 162 166 170 166 155 154 156 152 145 147 155 155 142 132 133 135 134 123 104 93 88 70 0 348 303 250 231 221 215 211 206 199 194 195 198 199 200 200 195 193 196 189 172 169 179 181 175 181 190 192 192 197 201 200 202
252 244 243 244 243 255 319 289 256 206 180 178 173 159 151 145 139 139 143 145 146 151 157 161 164 167 167 164 163 164 164 161 161 166 169 160 148 148 153 152 150 157 162 154 139 142 150 153 150 135 113 106 100 30 0 13 308 272 245 227 221 217 209 199 192 194 197 198 198 198 197 201 203 196 184 185 194 192 184 190 198 198 193 197 202 203 203
268 255 245 234 213 188 208 238 238 221 202 194 173 155 152 150 142 136 136 138 142 148 153 154 155 159 165 169 170 171 171 169 167 167 166 161 154 154 157 158 160 165 166 150 139 155 166 166 157 139 118 115 120 5 354 355 332 299 247 223 220 216 207 200 197 198 199 197 198 201 203 203 203 201 198 199 202 199 195 198 204 204 203 206 208 207 205
262 248 234 220 197 175 186 225 235 210 180 170 156 143 140 141 137 135 138 145 151 153 152 151 153 158 165 172 176 177 175 175 174 171 168 167 167 167 166 164 167 174 179 170 155 167 177 177 164 146 136 149 194 307 357 349 304 290 261 224 215 212 208 200 195 195 196 196 199 204 206 202 199 199 202 206 205 203 204 207 208 208 207 208 208 207 205
262 247 227 218 206 187 184 205 221 176 141 131 129 134 142 145 144 145 151 158 161 163 160 161 165 169 173 179 183 183 181 180 179 175 174 176 180 180 176 173 175 182 192 205 168 165 173 181 187 186 187 204 242 299 327 310 283 271 251 224 214 209 199 184 184 195 202 204 206 207 206 202 198 198 204 209 207 203 203 207 208 205 205 207 208 208 205
205 186 165 165 177 176 156 124 79 72 83 94 108 130 146 146 142 146 156 166 174 179 177 175 176 182 186 190 190 189 188 188 183 178 179 183 188 188 187 186 183 184 193 209 202 175 175 184 196 207 222 255 285 296 290 281 277 263 243 230 224 216 202 196 202 207 210 211 212 207 202 199 200 201 206 209 207 202 203 208 209 205 205 208 211 211 207
69 66 68 77 82 73 65 62 59 58 69 86 102 119 135 144 142 146 156 175 194 200 198 197 197 196 198 203 206 204 201 200 196 191 190 194 195 193 192 191 190 191 200 216 229 217 205 204 208 212 227 263 289 294 276 253 258 257 245 236 233 228 219 216 216 214 209 208 213 213 209 205 206 207 209 209 206 204 206 209 209 206 204 206 209 210 208
Height
740 740 741 738 738 740 741 743 747 750 751 755 760 762 760 765 777 780 772 774 778 767 756 755 753 751 753 750 748 747 747 747 747 749 751 752 753 754 755 756 757 759 762 763 766 771 775 780 784 787 790 793 796 799 801 802 804 805 807 809 809 810 810 810 811 811 811 812 811 811 811 810 810 809 809 809 808 807 806 804 803 802 800 799 798 796 796
744 744 743 740 739 742 742 740 741 745 748 751 754 753 752 759 767 765 765 773 773 760 754 752 748 747 748 747 746 746 745 746 746 747 749 750 750 751 752 753 755 756 758 760 764 768 773 777 781 784 788 791 794 797 798 800 802 803 805 806 807 808 808 808 809 809 809 810 809 809 809 809 808 807 807 807 805 804 803 802 801 800 799 797 796 794 793
751 747 743 742 741 743 744 742 739 741 746 749 750 750 752 760 766 762 763 772 770 753 745 746 746 745 746 747 747 745 743 743 744 746 746 746 747 747 748 750 752 753 755 758 761 765 770 774 778 782 786 789 792 794 796 798 800 801 803 804 804 805 805 806 807 807 807 807 807 807 807 807 806 805 805 804 803 802 801 799 799 798 797 795 794 792 791
757 749 747 747 742 741 747 749 745 744 747 749 749 750 753 759 765 766 768 773 766 749 741 745 746 745 746 747 745 743 742 742 743 744 744 743 744 744 745 747 748 750 752 755 757 761 767 772 776 780 784 787 790 792 793 795 797 799 801 801 802 802 803 804 804 804 805 805 805 805 804 804 803 803 802 801 800 800 798 797 796 795 794 793 792 790 789
755 750 748 746 746 755 760 751 743 743 744 745 746 748 750 751 755 763 767 763 753 745 744 749 748 746 746 744 741 742 742 741 742 742 741 741 741 740 742 743 745 747 748 750 754 759 764 769 774 778 782 785 787 789 791 793 795 797 797 798 799 800 800 801 801 802 803 802 802 802 801 801 801 800 800 799 798 797 795 794 794 793 792 791 789 788 787
756 752 746 748 761 773 763 740 729 733 737 742 747 749 749 748 748 751 752 748 744 745 747 749 748 745 743 741 739 739 739 740 741 740 738 738 738 738 739 740 742 743 744 747 752 757 762 767 772 777 780 782 784 786 789 791 793 794 794 795 796 797 798 799 799 799 800 799 799 799 799 799 798 797 797 796 795 794 793 792 791 791 790 788 787 786 785
753 751 753 770 779 767 747 733 727 728 730 734 740 743 742 743 744 745 746 745 744 744 743 741 741 741 739 738 737 736 735 736 737 737 737 736 736 736 737 738 740 741 743 746 751 756 761 766 771 775 777 779 782 784 786 788 790 791 792 792 793 794 795 796 796 797 797 796 796 796 796 796 796 795 795 794 793 792 791 790 789 788 787 786 784 783 782
752 756 763 776 773 750 738 739 735 731 734 737 743 749 745 739 740 743 744 743 740 739 738 736 737 739 737 736 734 732 731 731 731 733 733 732 733 734 734 736 738 740 742 746 750 755 760 765 769 772 775 777 779 781 783 785 787 788 789 790 790 791 792 793 794 794 794 794 794 793 794 794 793 793 792 791 791 790 789 788 787 786 785 783 782 781 781
752 757 758 759 759 754 750 746 738 734 737 738 744 754 749 736 732 736 738 740 739 736 736 736 736 738 739 738 733 727 726 727 728 729 728 728 729 730 731 734 737 739 743 746 749 754 759 764 767 770 772 775 776 778 781 782 783 785 786 786 787 788 789 790 791 791 791 791 791 791 791 790 790 790 790 789 789 788 787 787 785 784 783 782 781 781 780
747 751 758 762 767 766 754 741 731 725 726 727 733 748 750 735 728 730 733 737 738 735 736 737 738 740 744 742 734 726 724 725 725 727 726 725 726 728 730 733 736 740 744 746 749 754 758 762 765 767 770 772 774 776 778 779 780 782 783 783 785 786 787 787 788 788 788 788 788 788 788 788 787 788 788 788 787 787 787 786 785 784 783 782 782 781 780
746 752 761 764 764 755 739 731 726 723 724 723 731 753 756 735 723 726 730 734 735 733 734 737 738 743 746 740 731 726 724 723 724 726 726 725 726 729 731 733 736 739 743 746 750 754 757 760 763 765 767 768 771 773 774 775 777 778 779 780 781 782 784 784 785 785 786 786 786 786 785 785 785 785 786 786 786 786 785 785 784 784 783 782 781 781 780
746 751 755 752 748 740 731 728 727 723 720 723 745 772 762 731 721 726 727 730 732 729 732 735 738 742 742 735 729 724 721 722 723 725 727 727 727 729 731 733 736 739 743 747 750 753 756 758 760 761 763 765 767 769 770 772 773 774 776 777 778 779 781 781 782 783 783 784 784 784 783 783 782 783 783 784 784 784 783 783 782 781 780 779 778 778 777
742 749 752 746 739 733 730 729 725 720 722 737 760 769 747 724 723 725 724 727 728 725 730 734 733 732 729 727 725 720 719 723 725 725 727 728 728 730 732 734 737 740 743 746 749 752 754 755 757 759 761 762 764 766 768 769 769 771 773 774 776 777 778 779 780 781 781 781 781 781 782 781 780 780 781 781 782 781 781 780 779 779 778 777 776 774 774
736 740 746 748 742 732 727 727 722 720 735 752 755 742 728 723 725 723 723 726 723 722 727 728 726 723 722 722 722 720 721 725 726 726 727 728 729 731 733 735 738 740 743 745 748 750 752 753 755 757 758 760 762 764 765 766 767 769 770 772 773 775 776 777 778 778 779 779 779 779 780 779 779 778 778 778 779 778 779 778 777 776 776 775 774 773 772
735 740 748 757 755 738 726 728 731 732 740 745 739 730 726 724 722 722 724 724 721 722 724 723 722 721 721 722 722 721 722 725 725 726 727 728 730 731 733 736 738 740 743 745 747 748 750 752 754 755 757 758 759 761 763 763 765 767 768 770 771 772 773 775 775 776 777 776 777 778 778 777 776 776 776 776 776 776 776 776 775 774 773 772 772 771 770
740 749 751 751 747 734 725 731 738 735 731 728 729 731 730 724 722 724 725 723 721 721 721 721 722 722 723 723 722 722 724 724 725 726 727 729 731 732 734 736 738 741 743 744 746 748 749 751 753 754 755 757 758 759 761 762 763 764 765 767 768 769 771 773 773 774 775 775 775 776 776 775 774 774 774 775 774 774 774 774 774 773 771 771 770 769 768
736 741 739 735 732 728 725 728 730 728 724 722 725 728 729 726 723 722 723 723 720 719 720 722 722 722 723 723 722 722 723 724 724 726 728 729 732 733 734 736 739 741 742 743 746 747 748 750 752 753 754 755 756 756 758 760 761 762 762 764 765 768 770 771 771 773 774 774 775 775 774 774 773 772 773 773 773 773 773 772 771 771 770 769 769 768 767
732 733 731 729 730 729 726 725 725 725 724 723 723 726 727 725 721 719 720 721 718 718 720 721 721 722 722 722 722 722 723 724 726 727 729 730 732 734 735 737 739 741 742 743 745 747 748 750 751 751 753 754 754 755 756 757 758 759 760 762 764 767 769 769 770 772 773 773 774 774 774 773 772 771 771 771 771 771 771 770 769 768 768 767 767 766 765
739 740 735 730 730 730 728 726 726 725 725 724 725 726 726 723 721 718 717 717 717 717 718 719 720 720 719 721 723 723 724 726 727 728 729 731 733 734 736 738 740 741 742 744 745 746 748 749 750 751 753 753 754 755 756 756 757 757 759 761 763 766 767 768 770 771 772 772 773 773 773 772 770 770 769 770 770 770 769 768 767 766 766 765 764 764 763
738 739 735 730 729 727 726 727 728 729 729 727 724 724 723 721 720 718 716 716 716 716 716 717 718 718 718 720 723 724 725 727 728 729 731 732 734 736 737 739 741 742 743 745 745 746 748 749 751 752 752 753 754 754 755 756 756 757 759 761 763 765 766 768 769 770 771 771 771 771 771 770 769 768 768 768 769 769 768 766 765 765 764 764 763 763 762
736 735 735 734 731 728 725 726 728 730 730 728 725 723 721 719 718 717 716 715 714 714 714 715 716 718 719 719 720 722 725 727 728 730 732 734 736 738 739 741 742 743 744 745 746 747 748 750 751 752 752 753 753 754 755 756 756 758 760 761 763 765 766 767 769 769 769 770 769 769 769 768 768 767 767 767 767 767 767 765 764 764 764 763 763 763 762
740 739 740 740 740 737 732 729 730 730 729 727 726 724 721 719 718 718 717 716 713 712 713 713 716 720 722 721 721 722 724 726 728 730 732 735 737 738 740 741 742 743 744 745 746 748 749 750 751 752 753 753 754 754 755 756 757 758 759 761 763 764 765 766 766 766 767 767 767 768 767 766 766 766 766 766 766 765 765 764 763 763 763 763 763 762 762
741 740 740 740 742 742 736 732 731 730 728 727 727 725 723 721 718 716 717 717 715 714 714 714 716 720 723 723 723 723 724 727 728 730 732 734 736 737 739 740 741 743 745 746 747 748 749 750 751 752 752 753 753 754 755 756 757 758 758 760 761 762 763 764 764 764 765 765 765 766 765 765 765 765 765 765 765 764 764 764 763 763 763 762 762 762 762
740 738 738 740 742 742 737 732 731 729 727 728 727 725 723 721 718 716 717 716 714 715 717 716 716 719 721 722 723 724 726 727 728 731 733 735 736 738 739 740 742 744 745 746 747 748 749 750 751 751 752 753 753 754 755 755 756 757 757 758 759 760 761 762 763 764 765 764 764 764 764 764 764 764 765 765 764 764 764 764 764 764 764 763 763 762 762
741 739 737 738 740 739 734 730 728 727 726 727 727 725 723 721 719 717 717 715 713 713 716 718 718 718 720 722 723 725 727 728 730 732 734 735 737 738 739 740 743 744 745 747 748 748 749 750 751 751 752 752 753 754 754 755 755 756 757 757 758 759 760 761 762 763 763 762 762 762 762 762 763 763 764 763 762 763 765 765 765 766 765 764 763 763 762
740 738 736 735 735 733 731 730 729 728 727 727 727 725 722 720 719 717 716 716 714 712 713 716 718 719 720 722 724 726 727 729 731 733 734 736 737 738 739 741 743 744 746 747 747 748 749 750 751 751 751 752 753 754 754 755 755 756 756 757 758 758 759 760 761 761 761 761 761 760 761 761 762 762 763 761 760 762 765 765 765 766 765 764 763 763 762
738 737 736 737 736 733 732 733 732 730 728 726 726 724 720 718 718 717 716 715 714 713 713 715 717 720 722 723 725 727 729 730 732 734 735 736 737 739 740 742 743 745 746 747 748 749 750 750 751 751 752 753 754 754 754 755 755 755 756 757 757 757 758 759 759 759 759 759 759 759 760 761 761 761 762 760 760 761 763 763 763 764 764 764 763 762 762
737 735 735 737 738 735 733 732 731 729 727 726 724 722 719 716 715 716 716 715 713 712 713 714 717 720 722 724 726 728 729 731 733 734 735 736 738 740 741 743 744 745 746 747 749 750 750 751 751 751 752 753 754 754 754 755 755 755 755 755 755 755 756 757 758 758 758 759 759 759 760 761 761 761 761 761 760 761 762 762 762 762 762 762 762 762 762
735 734 733 734 734 732 730 729 729 728 726 724 722 720 719 717 715 715 714 713 711 711 712 714 716 719 721 723 725 727 729 731 732 734 736 737 739 740 742 743 745 746 747 748 749 750 750 751 751 751 753 753 753 753 754 754 754 754 753 753 754 754 754 756 757 757 758 759 759 759 760 761 761 762 762 762 761 761 762 763 762 761 762 763 763 762 762
734 734 734 732 730 729 729 728 727 726 724 722 721 719 718 717 716 715 713 712 713 713 712 712 715 717 719 722 724 726 727 730 732 734 736 738 739 741 743 744 745 746 747 749 750 750 751 751 751 752 753 753 753 753 753 753 753 753 753 753 753 753 754 755 756 757 758 759 759 760 760 761 762 762 763 762 762 763 764 764 763 762 762 763 763 763 764
735 734 733 731 729 728 727 726 725 724 722 720 719 718 717 716 716 715 713 712 714 715 712 711 713 716 717 720 723 725 727 730 732 734 736 738 740 741 743 744 745 746 747 749 750 750 751 751 752 752 753 752 753 753 752 752 752 752 752 753 753 754 754 755 756 757 758 758 759 760 761 762 763 764 763 763 763 764 764 764 764 764 763 764 764 765 765
735 734 732 730 729 728 726 725 724 722 720 719 718 717 716 715 714 714 711 710 713 715 714 711 712 715 718 721 724 726 728 730 733 734 736 738 740 742 743 744 745 746 747 749 750 750 751 751 752 753 753 753 753 752 752 752 752 751 752 753 753 754 755 756 757 758 758 759 760 761 761 763 764 764 764 764 764 764 765 765 765 765 765 765 766 767 767
737 736 734 732 731 730 728 727 725 723 720 718 717 715 714 713 712 711 709 709 711 714 714 713 713 716 719 722 724 726 728 730 732 735 737 739 740 742 744 745 746 747 748 749 749 750 751 751 752 753 753 753 753 753 753 752 752 752 752 753 754 755 756 757 757 758 758 759 760 761 762 763 764 765 765 765 764 765 765 765 765 766 767 767 768 768 768
736 736 735 733 732 731 729 727 724 722 719 717 714 712 711 710 709 709 708 708 709 710 712 714 714 715 717 722 724 725 726 729 732 735 737 739 740 742 744 745 746 748 748 749 749 750 750 751 752 753 753 753 753 753 753 752 752 753 753 754 755 756 757 757 758 759 759 761 761 762 763 764 764 765 765 765 764 765 765 765 766 767 768 769 769 769 769
734 733 732 730 729 728 726 724 723 720 717 715 713 710 708 707 707 708 709 709 709 710 713 715 715 715 717 721 723 724 725 728 732 735 737 739 741 742 744 745 747 748 749 750 751 751 751 751 752 752 753 753 753 753 753 753 753 753 754 755 756 757 757 758 760 760 761 762 762 763 763 764 764 765 765 765 765 765 765 765 766 767 768 769 769 769 770
732 731 730 729 727 725 723 721 720 717 715 713 711 709 707 707 707 708 709 709 711 713 715 718 720 722 723 723 723 725 727 730 732 735 738 740 741 743 744 746 747 749 750 751 752 752 752 752 752 752 752 753 753 754 754 754 754 755 756 756 757 758 759 759 760 761 762 762 763 764 764 764 765 765 765 765 765 765 765 765 766 767 768 769 769 770 770
730 729 728 727 725 723 721 719 717 714 713 711 709 708 707 707 708 709 710 711 712 714 715 717 721 726 729 729 728 728 730 732 733 736 738 741 742 743 744 746 748 749 749 751 752 753 753 753 753 753 753 753 753 754 754 754 754 755 756 756 757 758 758 759 760 761 762 762 763 763 763 764 764 765 766 766 765 765 765 766 767 768 769 769 769 770 770
728 727 726 725 724 721 719 716 714 712 710 708 707 707 707 708 709 711 712 713 714 715 716 717 720 724 729 732 733 732 732 733 735 737 740 741 742 743 745 747 749 749 750 751 752 753 754 754 754 754 754 754 754 755 755 755 754 755 755 756 757 757 758 759 760 761 762 762 762 763 763 763 763 763 764 766 766 766 766 767 767 768 768 769 770 770 770
727 725 725 723 722 720 717 714 712 710 707 706 706 707 707 708 710 712 714 716 717 718 719 720 722 725 729 733 734 733 733 734 736 738 741 742 743 745 747 749 750 751 751 752 753 754 755 755 755 755 755 755 755 756 757 756 755 756 757 757 758 758 758 759 760 761 762 762 763 763 763 763 763 762 763 765 766 766 766 767 767 767 768 768 769 770 770
726 725 723 722 720 718 715 713 711 709 707 706 707 708 709 709 710 711 713 716 719 720 721 723 724 727 730 733 733 733 734 736 737 739 741 743 744 746 748 750 751 752 752 752 753 754 755 755 755 756 757 756 756 757 758 757 756 757 757 758 758 758 759 759 760 761 761 762 762 763 763 763 763 763 763 764 766 766 766 766 767 767 767 769 769 769 769
724 723 722 720 718 716 714 712 711 710 709 709 709 710 711 712 712 712 714 716 718 719 721 724 725 727 730 732 732 732 734 737 739 741 742 744 745 746 747 750 752 752 752 753 754 755 756 756 756 756 757 757 757 758 758 757 757 757 757 758 758 758 758 759 760 760 761 761 761 761 761 762 763 762 762 763 764 765 765 766 766 767 767 768 769 769 769
723 721 720 719 717 716 714 713 712 711 711 711 711 711 712 713 714 716 718 720 720 721 723 726 728 730 730 731 731 733 735 738 740 742 743 745 746 746 747 750 752 753 752 753 754 755 756 756 756 757 757 758 758 758 758 757 757 757 757 757 758 757 758 759 759 759 760 760 760 760 760 761 761 761 762 762 763 764 765 765 766 766 767 767 768 768 768
723 721 719 719 717 716 715 714 713 713 713 713 713 713 714 715 716 718 719 721 722 723 725 727 729 730 731 731 732 735 737 739 741 742 744 746 747 747 748 750 752 753 753 754 754 754 755 756 757 758 758 758 758 758 757 757 757 756 756 757 757 757 757 758 758 758 759 760 760 760 761 760 760 761 761 762 762 763 764 765 765 765 766 767 767 767 768
721 720 720 720 719 718 718 717 716 715 715 715 715 715 716 716 718 719 721 722 723 724 725 726 728 730 731 732 733 735 738 739 740 741 743 745 747 748 749 750 752 753 753 753 754 754 755 757 758 758 758 758 758 757 757 757 756 756 756 756 756 757 757 757 757 757 758 759 759 760 760 760 760 761 761 761 762 763 764 764 765 765 766 766 767 767 768
720 720 720 721 721 721 720 719 719 718 717 717 717 718 718 719 720 721 722 723 724 725 726 728 729 730 731 732 733 735 737 738 739 740 741 742 745 747 749 750 751 752 753 753 754 754 756 757 758 758 758 758 757 757 757 756 756 756 756 756 756 756 756 756 756 757 757 758 759 759 759 760 760 760 760 761 762 762 763 764 764 765 765 766 766 767 768
719 719 721 722 722 722 722 722 722 722 721 720 719 719 720 721 722 722 723 724 726 727 728 729 729 729 730 731 733 734 735 737 739 740 741 742 744 746 748 750 751 751 752 753 754 754 756 757 757 757 757 757 757 756 756 756 756 756 755 755 755 755 755 756 756 756 757 758 758 758 759 760 760 760 760 761 762 762 762 763 763 764 765 765 766 766 767
719 720 721 722 722 722 723 723 723 722 721 720 720 720 721 722 723 723 724 725 726 727 728 728 729 729 730 731 732 733 734 736 738 741 742 743 744 746 748 749 750 751 752 753 753 754 755 755 755 756 756 756 756 756 755 755 755 755 755 755 755 755 755 755 755 756 757 757 758 759 759 760 760 760 760 761 761 761 762 762 763 763 764 765 766 766 767
721 721 721 722 722 722 722 723 723 722 721 720 719 719 720 721 722 722 723 724 726 727 727 728 729 730 731 732 733 734 734 735 737 739 741 742 744 746 748 749 750 751 752 752 753 754 754 754 754 755 755 755 755 755 754 754 755 755 754 754 754 754 754 755 755 756 756 757 758 759 759 759 759 760 760 760 760 761 761 762 762 763 763 764 764 765 765
721 720 720 720 720 721 722 723 724 723 722 720 719 719 720 721 721 723 724 725 725 726 727 728 729 730 731 732 733 734 735 736 737 738 740 741 743 745 746 748 750 750 750 750 751 753 753 753 754 754 753 753 753 753 753 754 754 754 754 754 754 754 754 754 754 755 756 757 757 757 758 758 758 758 759 759 759 760 760 761 761 761 762 763 763 763 764
721 720 719 719 719 720 721 723 723 721 718 717 718 719 720 720 721 722 723 724 725 726 727 728 729 730 731 732 733 734 735 736 737 738 740 741 742 743 745 747 748 749 749 748 749 750 752 753 753 753 753 753 753 752 753 753 753 753 754 754 754 753 754 754 755 755 756 756 756 757 757 757 757 758 758 758 759 759 760 760 760 760 761 762 762 763 763
720 720 719 719 719 719 720 720 720 718 716 717 718 719 719 719 720 721 723 724 725 725 726 727 728 730 731 732 732 733 735 736 737 738 740 741 741 742 744 745 747 748 748 748 748 749 750 751 752 753 753 752 752 751 752 752 752 752 753 753 753 753 754 755 755 755 755 755 755 756 756 756 756 757 757 758 758 758 759 759 759 760 761 761 761 762 762
719 718 718 718 718 717 717 718 718 718 718 718 719 719 719 719 720 721 723 724 725 724 725 726 727 728 730 731 731 732 734 736 737 738 739 740 741 742 743 744 745 746 747 747 747 748 748 749 750 751 751 751 750 750 750 751 751 751 751 752 752 752 753 754 754 754 754 755 755 755 755 755 755 756 756 756 757 757 757 758 758 758 759 759 760 760 761